Miscellaneous Local Product
Issued by NWS North Platte, NE

Home | Current Version | Previous Version | Graphics & Text | Print | Product List | Glossary On
Versions: 1 2 3 4 5 6 7 8 9 10 11 12 13 14 15 16 17 18 19 20 21 22 23 24 25 26 27 28 29 30 31 32 33 34 35 36 37 38 39 40 41 42 43 44 45 46 47 48 49 50
038
AXUS43 KLBF 180210
MISLBF


WESTERN AND NORTH CENTRAL NEBRASKA HOURLY WEATHER ROUNDUP
NATIONAL WEATHER SERVICE NORTH PLATTE NE
900 PM CDT TUE OCT 17 2017

NOTE: "FAIR" INDICATES FEW OR NO CLOUDS BELOW 12,000 FEET WITH NO
SIGNIFICANT WEATHER AND/OR OBSTRUCTIONS TO VISIBILITY.

NOTE: STATIONS NOT REPORTING VARIABLES SUCH AS SKY/WEATHER OR
PRESSURE ARE PROVIDED BY RAWS AND APRS NETWORKS AND ARE NOT UNDER
NATIONAL WEATHER SERVICE QUALITY CONTROL.

...OBSERVATIONS IN AND NEAR THE EASTERN PANHANDLE OF NEBRASKA...

CITY           SKY/WX    TMP DP  RH WIND       PRES   REMARKS
PINE RIDGE     CLEAR     49  28  44 NW3       29.89F
GORDON         FAIR      55  26  33 W7        29.91S
CHADRON        CLEAR     51  22  31 W10       29.89F
ALLIANCE       CLEAR     49  22  34 CALM      29.96S
SIDNEY         CLOUDY    44  23  43 W10       30.03S
CRESCENT LAKE    N/A     57  23  27 CALM        N/A
$$

...OBSERVATIONS IN NORTHERN NEBRASKA AND FAR SOUTHERN SOUTH DAKOTA...

CITY           SKY/WX    TMP DP  RH WIND       PRES   REMARKS
WINNER         FAIR      64  35  34 S14       29.85F
VALENTINE      CLEAR     53  28  38 SW7       29.89F
THEDFORD       CLEAR     62  29  29 S9        29.95S
AINSWORTH      CLEAR     54  35  48 S7        29.91F
O`NEILL        CLEAR     61  41  48 SE6       29.93S
ORD            CLEAR     50  39  66 S8        29.94F
BROKEN BOW     CLEAR     45  40  82 CALM      29.96F
VALENTINE NWR    N/A     58  28  31 SW5         N/A
HALSEY           N/A     66  24  20 S8          N/A
BUTTE            N/A     61  40  45 S8          N/A
CHAMBERS         N/A     57  37  47 S3          N/A
EWING            N/A     60  40  47 S3          N/A
$$

...OBSERVATIONS IN SOUTHWEST NEBRASKA AND FAR NORTHEAST COLORADO...

CITY           SKY/WX    TMP DP  RH WIND       PRES   REMARKS
WRAY           FAIR      63  21  20 CALM      30.03R
HOLYOKE        FAIR      59  28  31 S10       30.00F
IMPERIAL       CLEAR     54  26  34 S7        29.99S
OGALLALA       CLEAR     61  28  28 CALM      29.97S
NORTH PLATTE   CLEAR     56  33  42 SE3       29.96S
MCCOOK         CLEAR     60  35  39 S8        29.99S
LEXINGTON      CLEAR     58  37  45 SE6       29.98F
STAPLETON        N/A     56  33  41 CALM        N/A
GOTHENBURG       N/A     62  32  32 E3          N/A
CALLAWAY         N/A     50  39  67 S7          N/A
$$

...OBSERVATIONS IN CENTRAL LINCOLN COUNTY AREA...

CITY           SKY/WX    TMP DP  RH WIND       PRES   REMARKS
N.P. AIRPORT   CLEAR     56  33  42 SE3       29.96S
N.P. DOWNTOWN    N/A     62  33  34 CALM        N/A
N.P. SOUTHEAST   N/A     64  33  31 S5          N/A
N.P. HILLCREST   N/A     62  32  32 SE5         N/A
$$

...SOME OBSERVATIONS FROM AROUND THE REGION...

CITY           SKY/WX    TMP DP  RH WIND       PRES   REMARKS
DENVER         CLOUDY    57  16  20 S12       30.10S
LIMON          CLOUDY    39  27  62 N7        30.14R WCI  34
ASPEN          CLOUDY    45  15  30 SW10      30.32R
LARAMIE        CLOUDY    45  15  30 W6        30.18S
CASPER         CLOUDY    55  16  21 SW12      30.02R
CHEYENNE       CLOUDY    51  21  30 W10       30.12S
SCOTTSBLUFF    CLOUDY    52  27  38 CALM      29.97S
GRAND ISLAND   CLEAR     57  44  62 S8        29.99S
OMAHA          CLEAR     60  46  59 S5        30.00S
SIOUX FALLS    CLEAR     64  45  49 S13       29.90F
PIERRE         CLEAR     58  35  42 CALM      29.79F
RAPID CITY     CLOUDY    49  27  42 W3        29.84F
BISMARCK       CLEAR     59  26  28 CALM      29.68F
KANSAS CITY    CLEAR     56  48  74 S12       30.08F
HILL CITY      CLEAR     53  40  61 SW3       30.01S
WICHITA        CLEAR     59  47  64 S9        30.08R
DODGE CITY     CLEAR     57  40  52 SE10      30.05R
OKLAHOMA CITY  PTCLDY    56  46  69 S7        30.11S
DALLAS         CLEAR     66  42  41 SE6       30.13S
AMARILLO       CLOUDY    65  40  39 S10       30.10R
$$




USA.gov is the U.S. government's official web portal to all federal, state and local government web resources and services.